{"data":{"norad_id":67259,"epoch":"2026-09-20T10:14:45.539808Z","epoch_age_seconds":109334,"freshness":"FRESH","line1":"1 67259U 25313M   26263.42691597  .00008497  00000+0  32768-3 0  9991","line2":"2 67259  97.3884 337.2379 0014046  31.5454 328.6624 15.26464935 40483","mean_motion":15.26464935,"eccentricity":0.0014046,"inclination_deg":97.3884,"raan_deg":337.2379,"arg_perigee_deg":31.5454,"mean_anomaly_deg":328.6624,"bstar":0.00032768,"rev_number":4048,"period_min":94.335609484538,"perigee_km":476.74811948181,"apogee_km":496.03194882616,"semimajor_km":6864.527034154,"source":"CELESTRAK","updated_at":"2026-09-21T09:00:16.513926Z"}}